Time,TemperatureF,DewpointF,PressureIn,WindDirection,WindDirectionDegrees,WindSpeedMPH,WindSpeedGustMPH,Humidity,HourlyPrecipIn,Conditions,Clouds,dailyrainin,SoftwareType,DateUTC
2013-09-12 00:01:00,62.8,57.2,29.94,NNW,339,0.0,1.0,82,0.00,,---,0.00,VWS V14.01,2013-09-12 07:01:00,
2013-09-12 00:06:00,62.8,57.2,29.94,NNW,339,0.0,0.0,82,0.00,,---,0.00,VWS V14.01,2013-09-12 07:06:00,
2013-09-12 00:11:00,62.8,57.2,29.93,NNW,339,0.0,0.0,82,0.00,,---,0.00,VWS V14.01,2013-09-12 07:11:00,
2013-09-12 00:15:00,62.8,57.2,29.94,NNW,339,0.0,0.0,82,0.00,,---,0.00,VWS V14.01,2013-09-12 07:15:00,
2013-09-12 00:20:00,62.9,57.3,29.93,NNW,339,0.0,0.0,82,0.00,,---,0.00,VWS V14.01,2013-09-12 07:20:00,
2013-09-12 00:25:00,62.9,57.3,29.94,NNW,339,0.0,0.0,82,0.00,,---,0.00,VWS V14.01,2013-09-12 07:25:00,
2013-09-12 00:30:00,62.9,57.3,29.93,NNW,339,0.0,0.0,82,0.00,,---,0.00,VWS V14.01,2013-09-12 07:30:00,
2013-09-12 00:35:00,62.9,57.3,29.94,NNW,339,0.0,0.0,82,0.00,,---,0.00,VWS V14.01,2013-09-12 07:35:00,
2013-09-12 00:40:00,62.9,57.3,29.94,NNW,339,0.0,0.0,82,0.00,,---,0.00,VWS V14.01,2013-09-12 07:40:00,
2013-09-12 00:45:00,62.9,57.3,29.94,NNW,339,0.0,0.0,82,0.00,,---,0.00,VWS V14.01,2013-09-12 07:45:00,
2013-09-12 00:50:00,62.8,57.2,29.94,NNW,339,0.0,1.0,82,0.00,,---,0.00,VWS V14.01,2013-09-12 07:50:00,
2013-09-12 00:55:00,62.8,57.2,29.94,NNW,333,0.0,0.0,82,0.00,,---,0.00,VWS V14.01,2013-09-12 07:55:00,
2013-09-12 01:00:00,62.8,57.6,29.94,NNW,333,0.0,0.0,83,0.00,,---,0.00,VWS V14.01,2013-09-12 08:00:00,
2013-09-12 01:05:00,62.7,57.5,29.94,NNW,333,0.0,0.0,83,0.00,,---,0.00,VWS V14.01,2013-09-12 08:05:00,
2013-09-12 01:10:00,62.7,57.5,29.94,NNW,333,0.0,0.0,83,0.00,,---,0.00,VWS V14.01,2013-09-12 08:10:00,
2013-09-12 01:15:00,62.7,57.5,29.94,NNW,333,0.0,0.0,83,0.00,,---,0.00,VWS V14.01,2013-09-12 08:15:00,
2013-09-12 01:20:00,62.7,57.5,29.94,NNW,333,0.0,1.0,83,0.00,,---,0.00,VWS V14.01,2013-09-12 08:20:00,
2013-09-12 01:25:00,62.7,57.1,29.94,NNW,333,0.0,0.0,82,0.00,,---,0.00,VWS V14.01,2013-09-12 08:25:00,
2013-09-12 01:30:00,62.7,57.5,29.94,NNW,333,0.0,0.0,83,0.00,,---,0.00,VWS V14.01,2013-09-12 08:30:00,
2013-09-12 01:35:00,62.7,57.5,29.94,NNW,333,0.0,0.0,83,0.00,,---,0.00,VWS V14.01,2013-09-12 08:35:00,
2013-09-12 01:40:00,62.8,57.2,29.94,NNW,333,0.0,0.0,82,0.00,,---,0.00,VWS V14.01,2013-09-12 08:40:00,
2013-09-12 01:45:00,62.7,57.1,29.94,NNW,333,0.0,0.0,82,0.00,,---,0.00,VWS V14.01,2013-09-12 08:45:00,
2013-09-12 01:50:00,62.7,57.1,29.94,NNW,333,0.0,0.0,82,0.00,,---,0.00,VWS V14.01,2013-09-12 08:50:00,
2013-09-12 01:55:00,62.7,57.5,29.94,NNW,333,0.0,0.0,83,0.00,,---,0.00,VWS V14.01,2013-09-12 08:55:00,
2013-09-12 02:00:00,62.7,57.1,29.93,NNW,333,0.0,0.0,82,0.00,,---,0.00,VWS V14.01,2013-09-12 09:00:00,
2013-09-12 02:05:00,62.7,57.5,29.93,NNW,333,0.0,0.0,83,0.00,,---,0.00,VWS V14.01,2013-09-12 09:05:00,
2013-09-12 02:10:00,62.8,57.2,29.94,NNW,334,0.0,0.0,82,0.00,,---,0.00,VWS V14.01,2013-09-12 09:10:00,
2013-09-12 02:15:00,62.8,57.6,29.94,NNW,334,0.0,0.0,83,0.00,,---,0.00,VWS V14.01,2013-09-12 09:15:00,
2013-09-12 02:20:00,62.8,57.6,29.93,NW,306,0.0,2.0,83,0.00,,---,0.00,VWS V14.01,2013-09-12 09:20:00,
2013-09-12 02:25:00,62.7,57.5,29.93,West,279,1.0,3.0,83,0.00,,---,0.00,VWS V14.01,2013-09-12 09:25:00,
2013-09-12 02:30:00,62.6,57.4,29.94,West,280,0.0,3.0,83,0.00,,---,0.00,VWS V14.01,2013-09-12 09:30:00,
2013-09-12 02:35:00,62.6,57.4,29.93,West,280,0.0,0.0,83,0.00,,---,0.00,VWS V14.01,2013-09-12 09:35:00,
2013-09-12 02:40:00,62.6,57.4,29.94,ESE,118,0.0,2.0,83,0.00,,---,0.00,VWS V14.01,2013-09-12 09:40:00,
2013-09-12 02:45:00,62.5,57.3,29.93,SSE,163,0.0,0.0,83,0.00,,---,0.00,VWS V14.01,2013-09-12 09:45:00,
2013-09-12 02:50:00,62.4,57.2,29.93,WSW,242,0.0,0.0,83,0.00,,---,0.00,VWS V14.01,2013-09-12 09:50:00,
2013-09-12 02:55:00,62.4,57.2,29.93,WSW,242,0.0,0.0,83,0.00,,---,0.00,VWS V14.01,2013-09-12 09:55:00,
2013-09-12 03:00:00,62.3,57.1,29.93,WSW,241,0.0,0.0,83,0.00,,---,0.00,VWS V14.01,2013-09-12 10:00:00,
2013-09-12 03:05:00,62.3,57.4,29.93,WSW,242,0.0,0.0,84,0.00,,---,0.00,VWS V14.01,2013-09-12 10:05:00,
2013-09-12 03:10:00,62.2,57.3,29.93,WSW,242,0.0,0.0,84,0.00,,---,0.00,VWS V14.01,2013-09-12 10:10:00,
2013-09-12 03:15:00,62.2,57.3,29.93,North,355,0.0,1.0,84,0.00,,---,0.00,VWS V14.01,2013-09-12 10:15:00,
2013-09-12 03:20:00,62.1,57.2,29.93,North,355,0.0,1.0,84,0.00,,---,0.00,VWS V14.01,2013-09-12 10:20:00,
2013-09-12 03:25:00,62.0,57.1,29.93,North,355,0.0,0.0,84,0.00,,---,0.00,VWS V14.01,2013-09-12 10:25:00,
2013-09-12 03:30:00,62.0,57.1,29.93,NNW,346,0.0,1.0,84,0.00,,---,0.00,VWS V14.01,2013-09-12 10:30:00,
2013-09-12 03:35:00,62.0,57.1,29.93,NNW,346,0.0,0.0,84,0.00,,---,0.00,VWS V14.01,2013-09-12 10:35:00,
2013-09-12 03:40:00,61.9,57.0,29.93,NNW,346,0.0,1.0,84,0.00,,---,0.00,VWS V14.01,2013-09-12 10:40:00,
2013-09-12 03:45:00,61.8,56.9,29.93,NNW,346,0.0,0.0,84,0.00,,---,0.00,VWS V14.01,2013-09-12 10:45:00,
2013-09-12 03:50:00,61.8,57.2,29.93,NNW,347,0.0,0.0,85,0.00,,---,0.00,VWS V14.01,2013-09-12 10:50:00,
2013-09-12 03:55:00,61.7,57.2,29.93,SE,142,0.0,1.0,85,0.00,,---,0.00,VWS V14.01,2013-09-12 10:55:00,
2013-09-12 04:00:00,61.7,57.2,29.93,SE,142,0.0,1.0,85,0.00,,---,0.00,VWS V14.01,2013-09-12 11:00:00,
2013-09-12 04:05:00,61.6,57.0,29.92,ESE,118,0.0,0.0,85,0.00,,---,0.00,VWS V14.01,2013-09-12 11:05:00,
2013-09-12 04:10:00,61.6,57.0,29.92,ESE,118,0.0,0.0,85,0.00,,---,0.00,VWS V14.01,2013-09-12 11:10:00,
2013-09-12 04:15:00,61.6,57.0,29.92,ESE,118,0.0,0.0,85,0.00,,---,0.00,VWS V14.01,2013-09-12 11:15:00,
2013-09-12 04:20:00,61.5,57.0,29.93,NNE,28,0.0,1.0,85,0.00,,---,0.00,VWS V14.01,2013-09-12 11:20:00,
2013-09-12 04:25:00,61.5,57.0,29.93,NNE,28,0.0,1.0,85,0.00,,---,0.00,VWS V14.01,2013-09-12 11:25:00,
2013-09-12 04:30:00,61.5,57.0,29.93,NNE,28,0.0,1.0,85,0.00,,---,0.00,VWS V14.01,2013-09-12 11:30:00,
2013-09-12 04:35:00,61.4,56.9,29.93,NNE,28,0.0,0.0,85,0.00,,---,0.00,VWS V14.01,2013-09-12 11:35:00,
2013-09-12 04:40:00,61.4,57.2,29.93,NNE,28,0.0,0.0,86,0.00,,---,0.00,VWS V14.01,2013-09-12 11:40:00,
2013-09-12 04:45:00,61.4,57.2,29.93,NNE,28,0.0,0.0,86,0.00,,---,0.00,VWS V14.01,2013-09-12 11:45:00,
2013-09-12 04:50:00,61.4,57.2,29.93,NNE,28,0.0,0.0,86,0.00,,---,0.00,VWS V14.01,2013-09-12 11:50:00,
2013-09-12 04:55:00,61.4,57.2,29.93,NNE,28,0.0,0.0,86,0.00,,---,0.00,VWS V14.01,2013-09-12 11:55:00,
2013-09-12 05:00:00,61.4,57.2,29.92,NNE,28,0.0,1.0,86,0.00,,---,0.00,VWS V14.01,2013-09-12 12:00:00,
2013-09-12 05:05:00,61.3,57.1,29.93,NNE,28,0.0,1.0,86,0.00,,---,0.00,VWS V14.01,2013-09-12 12:05:00,
2013-09-12 05:10:00,61.3,57.1,29.92,NNE,28,0.0,1.0,86,0.00,,---,0.00,VWS V14.01,2013-09-12 12:10:00,
2013-09-12 05:15:00,61.3,57.1,29.92,NNE,28,0.0,0.0,86,0.00,,---,0.00,VWS V14.01,2013-09-12 12:15:00,
2013-09-12 05:20:00,61.3,57.1,29.92,NNE,28,0.0,0.0,86,0.00,,---,0.00,VWS V14.01,2013-09-12 12:20:00,
2013-09-12 05:25:00,61.3,57.1,29.92,NNE,28,0.0,0.0,86,0.00,,---,0.00,VWS V14.01,2013-09-12 12:25:00,
2013-09-12 05:30:00,61.4,57.2,29.92,East,100,0.0,1.0,86,0.00,,---,0.00,VWS V14.01,2013-09-12 12:30:00,
2013-09-12 05:35:00,61.4,57.2,29.92,East,97,0.0,1.0,86,0.00,,---,0.00,VWS V14.01,2013-09-12 12:35:00,
2013-09-12 05:40:00,61.4,57.2,29.92,East,97,0.0,1.0,86,0.00,,---,0.00,VWS V14.01,2013-09-12 12:40:00,
2013-09-12 05:45:00,61.5,57.3,29.92,East,96,0.0,1.0,86,0.00,,---,0.00,VWS V14.01,2013-09-12 12:45:00,
2013-09-12 05:50:00,61.6,57.4,29.93,East,96,0.0,1.0,86,0.00,,---,0.00,VWS V14.01,2013-09-12 12:50:00,
2013-09-12 05:55:00,61.6,57.4,29.93,East,96,0.0,0.0,86,0.00,,---,0.00,VWS V14.01,2013-09-12 12:55:00,
2013-09-12 06:00:00,61.6,57.4,29.93,East,101,0.0,2.0,86,0.00,,---,0.00,VWS V14.01,2013-09-12 13:00:00,
2013-09-12 06:05:00,61.6,57.4,29.93,East,96,0.0,0.0,86,0.00,,---,0.00,VWS V14.01,2013-09-12 13:05:00,
2013-09-12 06:10:00,61.7,57.5,29.93,East,96,0.0,0.0,86,0.00,,---,0.00,VWS V14.01,2013-09-12 13:10:00,
2013-09-12 06:15:00,61.6,57.4,29.93,ENE,59,0.0,1.0,86,0.00,,---,0.00,VWS V14.01,2013-09-12 13:15:00,
2013-09-12 06:20:00,61.6,57.4,29.93,ENE,59,0.0,1.0,86,0.00,,---,0.00,VWS V14.01,2013-09-12 13:20:00,
2013-09-12 06:25:00,61.5,57.3,29.93,ENE,59,0.0,0.0,86,0.00,,---,0.00,VWS V14.01,2013-09-12 13:25:00,
2013-09-12 06:30:00,61.5,57.3,29.93,ENE,59,0.0,0.0,86,0.00,,---,0.00,VWS V14.01,2013-09-12 13:30:00,
2013-09-12 06:35:00,61.4,57.2,29.93,ENE,59,0.0,0.0,86,0.00,,---,0.00,VWS V14.01,2013-09-12 13:35:00,
2013-09-12 06:40:00,61.5,57.3,29.93,ENE,65,0.0,1.0,86,0.00,,---,0.00,VWS V14.01,2013-09-12 13:40:00,
2013-09-12 06:45:00,61.5,57.3,29.93,ENE,78,0.0,0.0,86,0.00,,---,0.00,VWS V14.01,2013-09-12 13:45:00,
2013-09-12 06:50:00,61.5,57.3,29.93,ESE,111,0.0,3.0,86,0.00,,---,0.00,VWS V14.01,2013-09-12 13:50:00,
2013-09-12 06:55:00,61.5,57.3,29.93,ESE,111,0.0,0.0,86,0.00,,---,0.00,VWS V14.01,2013-09-12 13:55:00,
2013-09-12 07:00:00,61.6,57.4,29.93,ESE,111,0.0,1.0,86,0.00,,---,0.00,VWS V14.01,2013-09-12 14:00:00,
2013-09-12 07:05:00,61.6,57.4,29.93,ESE,107,0.0,1.0,86,0.00,,---,0.00,VWS V14.01,2013-09-12 14:05:00,
2013-09-12 07:10:00,61.7,57.5,29.93,ESE,107,0.0,1.0,86,0.00,,---,0.00,VWS V14.01,2013-09-12 14:10:00,
2013-09-12 07:15:00,61.7,57.5,29.93,ESE,107,0.0,1.0,86,0.00,,---,0.00,VWS V14.01,2013-09-12 14:15:00,
2013-09-12 07:20:00,61.8,57.2,29.93,SE,129,0.0,1.0,85,0.00,,---,0.00,VWS V14.01,2013-09-12 14:20:00,
2013-09-12 07:25:00,61.9,57.3,29.93,SE,129,0.0,0.0,85,0.00,,---,0.00,VWS V14.01,2013-09-12 14:25:00,
2013-09-12 07:30:00,62.0,57.5,29.94,SE,129,0.0,0.0,85,0.00,,---,0.00,VWS V14.01,2013-09-12 14:30:00,
2013-09-12 07:35:00,62.0,57.5,29.94,SE,129,0.0,0.0,85,0.00,,---,0.00,VWS V14.01,2013-09-12 14:35:00,
2013-09-12 07:40:00,62.1,57.2,29.94,SE,129,0.0,0.0,84,0.00,,---,0.00,VWS V14.01,2013-09-12 14:40:00,
2013-09-12 07:45:00,62.2,57.6,29.94,NE,42,0.0,0.0,85,0.00,,---,0.00,VWS V14.01,2013-09-12 14:45:00,
2013-09-12 07:50:00,62.4,57.5,29.94,NE,43,0.0,0.0,84,0.00,,---,0.00,VWS V14.01,2013-09-12 14:50:00,
2013-09-12 07:55:00,62.5,57.6,29.94,NE,43,0.0,0.0,84,0.00,,---,0.00,VWS V14.01,2013-09-12 14:55:00,
2013-09-12 08:00:00,62.5,57.6,29.95,NE,43,0.0,0.0,84,0.00,,---,0.00,VWS V14.01,2013-09-12 15:00:00,
2013-09-12 08:05:00,62.6,57.7,29.95,NE,43,0.0,0.0,84,0.00,,---,0.00,VWS V14.01,2013-09-12 15:05:00,
2013-09-12 08:10:00,62.7,57.8,29.95,NE,43,0.0,0.0,84,0.00,,---,0.00,VWS V14.01,2013-09-12 15:10:00,
2013-09-12 08:15:00,62.8,57.9,29.95,NE,43,0.0,1.0,84,0.00,,---,0.00,VWS V14.01,2013-09-12 15:15:00,
2013-09-12 08:20:00,62.8,57.9,29.95,NE,43,0.0,1.0,84,0.00,,---,0.00,VWS V14.01,2013-09-12 15:20:00,
2013-09-12 08:25:00,62.9,57.7,29.95,NE,43,0.0,0.0,83,0.00,,---,0.00,VWS V14.01,2013-09-12 15:25:00,
2013-09-12 08:30:00,63.0,57.8,29.95,NE,43,0.0,1.0,83,0.00,,---,0.00,VWS V14.01,2013-09-12 15:30:00,
2013-09-12 08:35:00,63.1,57.9,29.95,NE,43,0.0,0.0,83,0.00,,---,0.00,VWS V14.01,2013-09-12 15:35:00,
2013-09-12 08:40:00,63.2,58.0,29.95,NNW,348,0.0,2.0,83,0.00,,---,0.00,VWS V14.01,2013-09-12 15:40:00,
2013-09-12 08:45:00,63.3,58.1,29.95,NNE,17,0.0,0.0,83,0.00,,---,0.00,VWS V14.01,2013-09-12 15:45:00,
2013-09-12 08:50:00,63.5,58.2,29.95,NNE,18,0.0,0.0,83,0.00,,---,0.00,VWS V14.01,2013-09-12 15:50:00,
2013-09-12 08:55:00,63.8,58.5,29.95,NNE,30,0.0,2.0,83,0.00,,---,0.00,VWS V14.01,2013-09-12 15:55:00,
2013-09-12 09:00:00,64.1,58.5,29.95,NE,35,0.0,2.0,82,0.00,,---,0.00,VWS V14.01,2013-09-12 16:00:00,
2013-09-12 09:04:00,64.2,58.6,29.95,NE,44,0.0,0.0,82,0.00,,---,0.00,VWS V14.01,2013-09-12 16:04:00,
2013-09-12 09:09:00,64.2,58.6,29.95,NE,45,0.0,0.0,82,0.00,,---,0.00,VWS V14.01,2013-09-12 16:09:00,
2013-09-12 09:14:00,64.3,58.7,29.95,East,101,0.0,0.0,82,0.00,,---,0.00,VWS V14.01,2013-09-12 16:14:00,
2013-09-12 09:19:00,64.4,58.5,29.95,East,94,0.0,0.0,81,0.00,,---,0.00,VWS V14.01,2013-09-12 16:19:00,
2013-09-12 09:24:00,64.5,58.5,29.95,East,94,0.0,0.0,81,0.00,,---,0.00,VWS V14.01,2013-09-12 16:24:00,
2013-09-12 09:29:00,64.8,58.8,29.95,NE,49,2.0,2.0,81,0.00,,---,0.00,VWS V14.01,2013-09-12 16:29:00,
2013-09-12 09:34:00,65.2,58.9,29.95,North,11,0.0,3.0,80,0.00,,---,0.00,VWS V14.01,2013-09-12 16:34:00,
2013-09-12 09:39:00,65.3,59.0,29.95,NE,54,1.0,3.0,80,0.00,,---,0.00,VWS V14.01,2013-09-12 16:39:00,
2013-09-12 09:44:00,65.3,59.0,29.95,NNE,22,0.0,2.0,80,0.00,,---,0.00,VWS V14.01,2013-09-12 16:44:00,
2013-09-12 09:49:00,65.4,59.1,29.95,NNW,343,0.0,2.0,80,0.00,,---,0.00,VWS V14.01,2013-09-12 16:49:00,
2013-09-12 09:54:00,65.5,59.2,29.95,NNW,344,0.0,3.0,80,0.00,,---,0.00,VWS V14.01,2013-09-12 16:54:00,
2013-09-12 09:59:00,65.7,59.0,29.95,NNE,22,0.0,3.0,79,0.00,,---,0.00,VWS V14.01,2013-09-12 16:59:00,
2013-09-12 10:04:00,65.9,59.2,29.95,NNE,28,0.0,1.0,79,0.00,,---,0.00,VWS V14.01,2013-09-12 17:04:00,
2013-09-12 10:09:00,66.2,59.5,29.95,North,355,1.0,2.0,79,0.00,,---,0.00,VWS V14.01,2013-09-12 17:09:00,
2013-09-12 10:14:00,66.4,59.3,29.96,NNE,28,0.0,2.0,78,0.00,,---,0.00,VWS V14.01,2013-09-12 17:14:00,
2013-09-12 10:19:00,66.5,59.1,29.96,ENE,58,0.0,2.0,77,0.00,,---,0.00,VWS V14.01,2013-09-12 17:19:00,
2013-09-12 10:24:00,66.5,59.1,29.95,ENE,73,0.0,0.0,77,0.00,,---,0.00,VWS V14.01,2013-09-12 17:24:00,
2013-09-12 10:29:00,66.7,59.3,29.95,ESE,111,1.0,2.0,77,0.00,,---,0.00,VWS V14.01,2013-09-12 17:29:00,
2013-09-12 10:34:00,67.1,59.7,29.95,NE,53,3.0,3.0,77,0.00,,---,0.00,VWS V14.01,2013-09-12 17:34:00,
2013-09-12 10:39:00,67.4,59.6,29.95,ESE,115,0.0,3.0,76,0.00,,---,0.00,VWS V14.01,2013-09-12 17:39:00,
2013-09-12 10:44:00,67.6,59.4,29.95,East,81,0.0,0.0,75,0.00,,---,0.00,VWS V14.01,2013-09-12 17:44:00,
2013-09-12 10:49:00,67.9,59.7,29.95,ESE,105,0.0,3.0,75,0.00,,---,0.00,VWS V14.01,2013-09-12 17:49:00,
2013-09-12 10:54:00,68.0,59.8,29.95,East,90,0.0,2.0,75,0.00,,---,0.00,VWS V14.01,2013-09-12 17:54:00,
2013-09-12 10:59:00,68.3,60.1,29.95,East,80,0.0,2.0,75,0.00,,---,0.00,VWS V14.01,2013-09-12 17:59:00,
2013-09-12 11:04:00,68.5,59.9,29.95,ENE,78,0.0,1.0,74,0.00,,---,0.00,VWS V14.01,2013-09-12 18:04:00,
2013-09-12 11:09:00,69.0,60.4,29.95,NNE,15,1.0,2.0,74,0.00,,---,0.00,VWS V14.01,2013-09-12 18:09:00,
2013-09-12 11:14:00,69.4,60.4,29.95,NNE,25,0.0,2.0,73,0.00,,---,0.00,VWS V14.01,2013-09-12 18:14:00,
2013-09-12 11:19:00,69.8,60.4,29.94,ENE,64,0.0,6.0,72,0.00,,---,0.00,VWS V14.01,2013-09-12 18:19:00,
2013-09-12 11:24:00,70.7,60.5,29.94,ESE,113,3.0,4.0,70,0.00,,---,0.00,VWS V14.01,2013-09-12 18:24:00,
2013-09-12 11:29:00,71.2,60.9,29.94,ENE,69,0.0,4.0,70,0.00,,---,0.00,VWS V14.01,2013-09-12 18:29:00,
2013-09-12 11:34:00,71.9,60.8,29.93,NNE,16,0.0,5.0,68,0.00,,---,0.00,VWS V14.01,2013-09-12 18:34:00,
2013-09-12 11:39:00,72.5,60.9,29.93,NE,49,0.0,7.0,67,0.00,,---,0.00,VWS V14.01,2013-09-12 18:39:00,
2013-09-12 11:44:00,72.7,60.7,29.93,ESE,105,3.0,7.0,66,0.00,,---,0.00,VWS V14.01,2013-09-12 18:44:00,
2013-09-12 11:49:00,73.2,61.2,29.93,NE,35,3.0,7.0,66,0.00,,---,0.00,VWS V14.01,2013-09-12 18:49:00,
2013-09-12 11:54:00,73.4,60.9,29.93,East,87,0.0,5.0,65,0.00,,---,0.00,VWS V14.01,2013-09-12 18:54:00,
2013-09-12 11:59:00,73.7,60.8,29.93,NNE,31,2.0,5.0,64,0.00,,---,0.00,VWS V14.01,2013-09-12 18:59:00,
2013-09-12 12:04:00,74.4,61.0,29.93,North,355,3.0,3.0,63,0.00,,---,0.00,VWS V14.01,2013-09-12 19:04:00,
2013-09-12 12:09:00,74.5,61.1,29.93,NE,40,0.0,4.0,63,0.00,,---,0.00,VWS V14.01,2013-09-12 19:09:00,
2013-09-12 12:14:00,75.0,61.6,29.93,North,360,0.0,1.0,63,0.00,,---,0.00,VWS V14.01,2013-09-12 19:14:00,
2013-09-12 12:19:00,75.4,61.5,29.93,ENE,61,2.0,4.0,62,0.00,,---,0.00,VWS V14.01,2013-09-12 19:19:00,
2013-09-12 12:24:00,76.0,61.6,29.92,NNE,24,0.0,3.0,61,0.00,,---,0.00,VWS V14.01,2013-09-12 19:24:00,
2013-09-12 12:29:00,76.4,61.0,29.92,NNE,30,0.0,4.0,59,0.00,,---,0.00,VWS V14.01,2013-09-12 19:29:00,
2013-09-12 12:34:00,76.2,61.3,29.92,NE,34,0.0,2.0,60,0.00,,---,0.00,VWS V14.01,2013-09-12 19:34:00,
2013-09-12 12:39:00,76.2,61.3,29.92,East,90,1.0,2.0,60,0.00,,---,0.00,VWS V14.01,2013-09-12 19:39:00,
2013-09-12 12:44:00,76.5,61.1,29.92,East,100,1.0,3.0,59,0.00,,---,0.00,VWS V14.01,2013-09-12 19:44:00,
2013-09-12 12:49:00,77.0,61.6,29.92,North,5,3.0,4.0,59,0.00,,---,0.00,VWS V14.01,2013-09-12 19:49:00,
2013-09-12 12:54:00,77.0,61.6,29.92,NW,315,0.0,2.0,59,0.00,,---,0.00,VWS V14.01,2013-09-12 19:54:00,
2013-09-12 12:59:00,76.9,62.0,29.91,NE,44,0.0,2.0,60,0.00,,---,0.00,VWS V14.01,2013-09-12 19:59:00,
2013-09-12 13:04:00,77.5,61.6,29.91,NE,43,0.0,3.0,58,0.00,,---,0.00,VWS V14.01,2013-09-12 20:04:00,
2013-09-12 13:09:00,78.2,62.2,29.91,North,11,0.0,3.0,58,0.00,,---,0.00,VWS V14.01,2013-09-12 20:09:00,
2013-09-12 13:14:00,79.0,62.0,29.91,East,101,0.0,1.0,56,0.00,,---,0.00,VWS V14.01,2013-09-12 20:14:00,
2013-09-12 13:19:00,79.6,62.0,29.91,ESE,107,0.0,1.0,55,0.00,,---,0.00,VWS V14.01,2013-09-12 20:19:00,
2013-09-12 13:24:00,80.2,62.6,29.91,WNW,300,0.0,4.0,55,0.00,,---,0.00,VWS V14.01,2013-09-12 20:24:00,
2013-09-12 13:29:00,80.0,61.9,29.90,East,88,1.0,4.0,54,0.00,,---,0.00,VWS V14.01,2013-09-12 20:29:00,
2013-09-12 13:34:00,79.7,62.1,29.90,SE,143,0.0,1.0,55,0.00,,---,0.00,VWS V14.01,2013-09-12 20:34:00,
2013-09-12 13:39:00,79.9,61.8,29.90,SE,139,0.0,2.0,54,0.00,,---,0.00,VWS V14.01,2013-09-12 20:39:00,
2013-09-12 13:44:00,80.1,62.0,29.89,NNW,335,0.0,3.0,54,0.00,,---,0.00,VWS V14.01,2013-09-12 20:44:00,
2013-09-12 13:49:00,80.3,62.2,29.89,WNW,294,0.0,3.0,54,0.00,,---,0.00,VWS V14.01,2013-09-12 20:49:00,
2013-09-12 13:54:00,80.3,62.2,29.90,WSW,250,0.0,1.0,54,0.00,,---,0.00,VWS V14.01,2013-09-12 20:54:00,
2013-09-12 13:59:00,80.7,62.5,29.89,East,89,1.0,5.0,54,0.00,,---,0.00,VWS V14.01,2013-09-12 20:59:00,
2013-09-12 14:04:00,81.3,62.5,29.89,NE,36,0.0,2.0,53,0.00,,---,0.00,VWS V14.01,2013-09-12 21:04:00,
2013-09-12 14:09:00,81.8,62.5,29.89,North,360,2.0,5.0,52,0.00,,---,0.00,VWS V14.01,2013-09-12 21:09:00,
2013-09-12 14:14:00,82.5,62.6,29.88,North,349,2.0,4.0,51,0.00,,---,0.00,VWS V14.01,2013-09-12 21:14:00,
2013-09-12 14:19:00,82.8,62.3,29.88,NNE,33,0.0,4.0,50,0.00,,---,0.00,VWS V14.01,2013-09-12 21:19:00,
2013-09-12 14:24:00,82.8,61.7,29.88,NW,314,0.0,3.0,49,0.00,,---,0.00,VWS V14.01,2013-09-12 21:24:00,
2013-09-12 14:29:00,82.8,61.7,29.88,NNE,28,0.0,3.0,49,0.00,,---,0.00,VWS V14.01,2013-09-12 21:29:00,
2013-09-12 14:34:00,83.0,61.9,29.87,West,276,1.0,5.0,49,0.00,,---,0.00,VWS V14.01,2013-09-12 21:34:00,
2013-09-12 14:39:00,82.4,61.3,29.87,West,277,0.0,5.0,49,0.00,,---,0.00,VWS V14.01,2013-09-12 21:39:00,
2013-09-12 14:44:00,82.3,61.8,29.87,North,5,0.0,4.0,50,0.00,,---,0.00,VWS V14.01,2013-09-12 21:44:00,
2013-09-12 14:49:00,82.9,62.4,29.87,NNW,343,3.0,4.0,50,0.00,,---,0.00,VWS V14.01,2013-09-12 21:49:00,
2013-09-12 14:54:00,83.2,61.5,29.87,NNE,12,2.0,3.0,48,0.00,,---,0.00,VWS V14.01,2013-09-12 21:54:00,
2013-09-12 14:59:00,83.5,61.2,29.87,East,85,1.0,3.0,47,0.00,,---,0.00,VWS V14.01,2013-09-12 21:59:00,
2013-09-12 15:04:00,83.6,61.3,29.86,ESE,115,0.0,4.0,47,0.00,,---,0.00,VWS V14.01,2013-09-12 22:04:00,
2013-09-12 15:09:00,83.8,60.8,29.86,East,92,1.0,4.0,46,0.00,,---,0.00,VWS V14.01,2013-09-12 22:09:00,
2013-09-12 15:14:00,84.0,61.0,29.86,East,101,1.0,3.0,46,0.00,,---,0.00,VWS V14.01,2013-09-12 22:14:00,
2013-09-12 15:19:00,84.4,60.8,29.86,ENE,71,3.0,3.0,45,0.00,,---,0.00,VWS V14.01,2013-09-12 22:19:00,
2013-09-12 15:24:00,84.8,61.7,29.86,NNW,327,1.0,4.0,46,0.00,,---,0.00,VWS V14.01,2013-09-12 22:24:00,
2013-09-12 15:29:00,84.8,61.7,29.86,SE,133,0.0,4.0,46,0.00,,---,0.00,VWS V14.01,2013-09-12 22:29:00,
2013-09-12 15:34:00,84.8,62.3,29.85,SE,124,2.0,5.0,47,0.00,,---,0.00,VWS V14.01,2013-09-12 22:34:00,
2013-09-12 15:39:00,84.2,61.8,29.85,ESE,106,5.0,12.0,47,0.00,,---,0.00,VWS V14.01,2013-09-12 22:39:00,
2013-09-12 15:44:00,84.3,61.9,29.85,SE,136,0.0,2.0,47,0.00,,---,0.00,VWS V14.01,2013-09-12 22:44:00,
2013-09-12 15:49:00,84.6,61.6,29.85,SW,229,0.0,3.0,46,0.00,,---,0.00,VWS V14.01,2013-09-12 22:49:00,
2013-09-12 15:54:00,84.4,61.4,29.85,WSW,250,0.0,5.0,46,0.00,,---,0.00,VWS V14.01,2013-09-12 22:54:00,
2013-09-12 15:59:00,84.4,61.4,29.84,SW,232,0.0,5.0,46,0.00,,---,0.00,VWS V14.01,2013-09-12 22:59:00,
2013-09-12 16:04:00,84.3,61.3,29.84,ESE,116,0.0,5.0,46,0.00,,---,0.00,VWS V14.01,2013-09-12 23:04:00,
2013-09-12 16:09:00,83.9,60.3,29.84,ENE,67,0.0,10.0,45,0.00,,---,0.00,VWS V14.01,2013-09-12 23:09:00,
2013-09-12 16:14:00,83.5,60.6,29.84,ESE,114,4.0,5.0,46,0.00,,---,0.00,VWS V14.01,2013-09-12 23:14:00,
2013-09-12 16:19:00,83.2,59.7,29.84,WNW,290,1.0,5.0,45,0.00,,---,0.00,VWS V14.01,2013-09-12 23:19:00,
2013-09-12 16:24:00,83.0,59.5,29.85,SE,143,0.0,3.0,45,0.00,,---,0.00,VWS V14.01,2013-09-12 23:24:00,
2013-09-12 16:29:00,82.9,59.4,29.85,WNW,286,2.0,6.0,45,0.00,,---,0.00,VWS V14.01,2013-09-12 23:29:00,
2013-09-12 16:34:00,82.5,59.0,29.84,SSE,148,1.0,5.0,45,0.00,,---,0.00,VWS V14.01,2013-09-12 23:34:00,
2013-09-12 16:39:00,82.1,58.7,29.84,WNW,295,2.0,5.0,45,0.00,,---,0.00,VWS V14.01,2013-09-12 23:39:00,
2013-09-12 16:44:00,81.9,58.5,29.84,SSE,162,0.0,4.0,45,0.00,,---,0.00,VWS V14.01,2013-09-12 23:44:00,
2013-09-12 16:49:00,81.8,59.0,29.84,ENE,65,1.0,4.0,46,0.00,,---,0.00,VWS V14.01,2013-09-12 23:49:00,
2013-09-12 16:54:00,82.0,59.2,29.84,West,278,0.0,2.0,46,0.00,,---,0.00,VWS V14.01,2013-09-12 23:54:00,
2013-09-12 16:59:00,82.1,59.3,29.84,West,270,3.0,3.0,46,0.00,,---,0.00,VWS V14.01,2013-09-12 23:59:00,
2013-09-12 17:04:00,82.4,59.6,29.84,WNW,282,0.0,3.0,46,0.00,,---,0.00,VWS V14.01,2013-09-13 00:04:00,
2013-09-12 17:09:00,82.5,59.7,29.83,NW,322,5.0,5.0,46,0.00,,---,0.00,VWS V14.01,2013-09-13 00:09:00,
2013-09-12 17:14:00,82.5,59.7,29.83,SW,225,1.0,2.0,46,0.00,,---,0.00,VWS V14.01,2013-09-13 00:14:00,
2013-09-12 17:19:00,82.3,59.5,29.83,West,265,0.0,3.0,46,0.00,,---,0.00,VWS V14.01,2013-09-13 00:19:00,
2013-09-12 17:24:00,81.8,59.0,29.84,SSW,192,1.0,1.0,46,0.00,,---,0.00,VWS V14.01,2013-09-13 00:24:00,
2013-09-12 17:29:00,81.4,59.3,29.84,SW,234,0.0,3.0,47,0.00,,---,0.00,VWS V14.01,2013-09-13 00:29:00,
2013-09-12 17:34:00,80.9,59.4,29.83,SSE,148,0.0,0.0,48,0.00,,---,0.00,VWS V14.01,2013-09-13 00:34:00,
2013-09-12 17:39:00,80.5,59.0,29.84,WNW,296,1.0,3.0,48,0.00,,---,0.00,VWS V14.01,2013-09-13 00:39:00,
2013-09-12 17:44:00,80.1,59.2,29.84,ESE,119,0.0,2.0,49,0.00,,---,0.00,VWS V14.01,2013-09-13 00:44:00,
2013-09-12 17:49:00,79.4,59.2,29.83,SSE,153,0.0,4.0,50,0.00,,---,0.00,VWS V14.01,2013-09-13 00:49:00,
2013-09-12 17:54:00,78.7,59.1,29.84,SE,132,0.0,0.0,51,0.00,,---,0.00,VWS V14.01,2013-09-13 00:54:00,
2013-09-12 17:59:00,78.2,59.2,29.83,ESE,111,0.0,3.0,52,0.00,,---,0.00,VWS V14.01,2013-09-13 00:59:00,
2013-09-12 18:04:00,77.7,58.7,29.84,WNW,290,0.0,1.0,52,0.00,,---,0.00,VWS V14.01,2013-09-13 01:04:00,
2013-09-12 18:09:00,77.2,58.8,29.84,SE,138,4.0,4.0,53,0.00,,---,0.00,VWS V14.01,2013-09-13 01:09:00,
2013-09-12 18:14:00,76.6,58.7,29.84,WSW,254,0.0,1.0,54,0.00,,---,0.00,VWS V14.01,2013-09-13 01:14:00,
2013-09-12 18:19:00,76.1,58.8,29.84,West,259,0.0,1.0,55,0.00,,---,0.00,VWS V14.01,2013-09-13 01:19:00,
2013-09-12 18:24:00,75.7,58.4,29.84,East,95,0.0,0.0,55,0.00,,---,0.00,VWS V14.01,2013-09-13 01:24:00,
2013-09-12 18:29:00,75.1,58.3,29.84,SE,134,0.0,2.0,56,0.00,,---,0.00,VWS V14.01,2013-09-13 01:29:00,
2013-09-12 18:34:00,74.5,58.3,29.84,WNW,301,0.0,1.0,57,0.00,,---,0.00,VWS V14.01,2013-09-13 01:34:00,
2013-09-12 18:39:00,73.9,58.2,29.84,NW,308,0.0,1.0,58,0.00,,---,0.00,VWS V14.01,2013-09-13 01:39:00,
2013-09-12 18:44:00,73.3,58.1,29.84,NW,308,0.0,0.0,59,0.00,,---,0.00,VWS V14.01,2013-09-13 01:44:00,
2013-09-12 18:49:00,72.8,58.1,29.85,NW,311,0.0,1.0,60,0.00,,---,0.00,VWS V14.01,2013-09-13 01:49:00,
2013-09-12 18:54:00,72.4,57.8,29.85,WSW,239,0.0,1.0,60,0.00,,---,0.00,VWS V14.01,2013-09-13 01:54:00,
2013-09-12 18:59:00,72.0,57.8,29.85,WSW,238,0.0,1.0,61,0.00,,---,0.00,VWS V14.01,2013-09-13 01:59:00,
2013-09-12 19:04:00,71.6,57.9,29.85,WSW,238,0.0,0.0,62,0.00,,---,0.00,VWS V14.01,2013-09-13 02:04:00,
2013-09-12 19:09:00,71.3,57.6,29.85,WSW,237,0.0,0.0,62,0.00,,---,0.00,VWS V14.01,2013-09-13 02:09:00,
2013-09-12 19:14:00,71.2,58.0,29.85,WSW,237,0.0,1.0,63,0.00,,---,0.00,VWS V14.01,2013-09-13 02:14:00,
2013-09-12 19:19:00,71.0,57.8,29.85,WSW,237,0.0,1.0,63,0.00,,---,0.00,VWS V14.01,2013-09-13 02:19:00,
2013-09-12 19:24:00,70.8,58.0,29.85,WSW,242,0.0,0.0,64,0.00,,---,0.00,VWS V14.01,2013-09-13 02:24:00,
2013-09-12 19:29:00,70.6,58.3,29.85,WSW,242,0.0,0.0,65,0.00,,---,0.00,VWS V14.01,2013-09-13 02:29:00,
2013-09-12 19:34:00,70.3,58.4,29.85,SE,135,0.0,0.0,66,0.00,,---,0.00,VWS V14.01,2013-09-13 02:34:00,
2013-09-12 19:39:00,70.2,58.3,29.85,SE,142,0.0,3.0,66,0.00,,---,0.00,VWS V14.01,2013-09-13 02:39:00,
2013-09-12 19:43:00,70.1,58.7,29.85,SE,142,0.0,0.0,67,0.00,,---,0.00,VWS V14.01,2013-09-13 02:43:00,
2013-09-12 19:48:00,69.9,58.5,29.85,SE,142,0.0,1.0,67,0.00,,---,0.00,VWS V14.01,2013-09-13 02:48:00,
2013-09-12 19:53:00,69.6,58.2,29.85,SE,142,0.0,0.0,67,0.00,,---,0.00,VWS V14.01,2013-09-13 02:53:00,
2013-09-12 19:58:00,69.4,58.4,29.85,ESE,121,0.0,1.0,68,0.00,,---,0.00,VWS V14.01,2013-09-13 02:58:00,
2013-09-12 20:03:00,69.0,58.4,29.86,ENE,65,1.0,2.0,69,0.00,,---,0.00,VWS V14.01,2013-09-13 03:03:00,
2013-09-12 20:08:00,68.5,57.9,29.86,ENE,58,0.0,3.0,69,0.00,,---,0.00,VWS V14.01,2013-09-13 03:08:00,
2013-09-12 20:13:00,68.1,58.0,29.86,ENE,58,0.0,0.0,70,0.00,,---,0.00,VWS V14.01,2013-09-13 03:13:00,
2013-09-12 20:18:00,67.8,57.7,29.86,North,5,0.0,1.0,70,0.00,,---,0.00,VWS V14.01,2013-09-13 03:18:00,
2013-09-12 20:23:00,67.4,57.7,29.86,North,5,0.0,0.0,71,0.00,,---,0.00,VWS V14.01,2013-09-13 03:23:00,
2013-09-12 20:28:00,67.1,57.8,29.86,NNE,29,0.0,3.0,72,0.00,,---,0.00,VWS V14.01,2013-09-13 03:28:00,
2013-09-12 20:33:00,66.7,57.8,29.86,NE,44,1.0,2.0,73,0.00,,---,0.00,VWS V14.01,2013-09-13 03:33:00,
2013-09-12 20:38:00,66.3,57.4,29.87,NE,56,0.0,2.0,73,0.00,,---,0.00,VWS V14.01,2013-09-13 03:38:00,
2013-09-12 20:43:00,66.0,57.5,29.87,NE,56,0.0,0.0,74,0.00,,---,0.00,VWS V14.01,2013-09-13 03:43:00,
2013-09-12 20:48:00,65.7,57.2,29.87,NE,56,0.0,0.0,74,0.00,,---,0.00,VWS V14.01,2013-09-13 03:48:00,
2013-09-12 20:53:00,65.4,57.3,29.87,NE,56,0.0,0.0,75,0.00,,---,0.00,VWS V14.01,2013-09-13 03:53:00,
2013-09-12 20:58:00,65.2,57.1,29.88,NE,56,0.0,0.0,75,0.00,,---,0.00,VWS V14.01,2013-09-13 03:58:00,
2013-09-12 21:01:00,65.0,57.3,29.88,NE,56,0.0,0.0,76,0.00,,---,0.00,VWS V14.01,2013-09-13 04:01:00,
2013-09-12 21:06:00,64.7,57.0,29.88,ENE,57,1.0,1.0,76,0.00,,---,0.00,VWS V14.01,2013-09-13 04:06:00,
2013-09-12 21:11:00,64.5,56.8,29.88,ENE,58,0.0,1.0,76,0.00,,---,0.00,VWS V14.01,2013-09-13 04:11:00,
2013-09-12 21:16:00,64.2,56.8,29.88,ENE,59,0.0,1.0,77,0.00,,---,0.00,VWS V14.01,2013-09-13 04:16:00,
2013-09-12 21:21:00,64.0,56.7,29.89,ENE,59,0.0,0.0,77,0.00,,---,0.00,VWS V14.01,2013-09-13 04:21:00,
2013-09-12 21:26:00,63.8,56.8,29.89,ENE,59,0.0,0.0,78,0.00,,---,0.00,VWS V14.01,2013-09-13 04:26:00,
2013-09-12 21:31:00,63.5,56.5,29.89,ENE,59,0.0,0.0,78,0.00,,---,0.00,VWS V14.01,2013-09-13 04:31:00,
2013-09-12 21:36:00,63.2,56.2,29.89,ESE,121,0.0,1.0,78,0.00,,---,0.00,VWS V14.01,2013-09-13 04:36:00,
2013-09-12 21:41:00,62.9,56.3,29.89,ESE,109,0.0,0.0,79,0.00,,---,0.00,VWS V14.01,2013-09-13 04:41:00,
2013-09-12 21:46:00,62.7,56.5,29.89,SE,128,0.0,3.0,80,0.00,,---,0.00,VWS V14.01,2013-09-13 04:46:00,
2013-09-12 21:51:00,62.4,56.2,29.89,SE,126,0.0,0.0,80,0.00,,---,0.00,VWS V14.01,2013-09-13 04:51:00,
2013-09-12 21:56:00,62.2,56.3,29.89,SE,126,0.0,1.0,81,0.00,,---,0.00,VWS V14.01,2013-09-13 04:56:00,
2013-09-12 22:01:00,61.9,56.0,29.89,SE,126,0.0,0.0,81,0.00,,---,0.00,VWS V14.01,2013-09-13 05:01:00,
2013-09-12 22:06:00,61.7,56.2,29.89,SE,126,0.0,0.0,82,0.00,,---,0.00,VWS V14.01,2013-09-13 05:06:00,
2013-09-12 22:11:00,61.5,56.0,29.90,SE,126,0.0,0.0,82,0.00,,---,0.00,VWS V14.01,2013-09-13 05:11:00,
2013-09-12 22:16:00,61.3,55.8,29.90,SE,126,0.0,1.0,82,0.00,,---,0.00,VWS V14.01,2013-09-13 05:16:00,
2013-09-12 22:21:00,61.0,55.8,29.90,SE,126,0.0,0.0,83,0.00,,---,0.00,VWS V14.01,2013-09-13 05:21:00,
2013-09-12 22:26:00,60.9,55.7,29.89,SE,126,0.0,0.0,83,0.00,,---,0.00,VWS V14.01,2013-09-13 05:26:00,
2013-09-12 22:31:00,60.7,55.5,29.89,SE,126,0.0,0.0,83,0.00,,---,0.00,VWS V14.01,2013-09-13 05:31:00,
2013-09-12 22:36:00,60.5,55.7,29.89,SE,126,0.0,0.0,84,0.00,,---,0.00,VWS V14.01,2013-09-13 05:36:00,
2013-09-12 22:41:00,60.3,55.1,29.89,SE,126,0.0,0.0,83,0.00,,---,0.00,VWS V14.01,2013-09-13 05:41:00,
2013-09-12 22:46:00,60.2,55.0,29.89,SE,126,0.0,0.0,83,0.00,,---,0.00,VWS V14.01,2013-09-13 05:46:00,
2013-09-12 22:51:00,60.0,55.2,29.89,SE,126,0.0,0.0,84,0.00,,---,0.00,VWS V14.01,2013-09-13 05:51:00,
2013-09-12 22:56:00,59.8,55.0,29.89,SE,126,0.0,0.0,84,0.00,,---,0.00,VWS V14.01,2013-09-13 05:56:00,
2013-09-12 23:01:00,59.6,54.8,29.89,SE,126,0.0,0.0,84,0.00,,---,0.00,VWS V14.01,2013-09-13 06:01:00,
2013-09-12 23:06:00,59.4,54.9,29.89,ESE,109,0.0,2.0,85,0.00,,---,0.00,VWS V14.01,2013-09-13 06:06:00,
2013-09-12 23:11:00,59.3,55.1,29.89,East,99,0.0,2.0,86,0.00,,---,0.00,VWS V14.01,2013-09-13 06:11:00,
2013-09-12 23:16:00,59.3,55.1,29.89,ESE,103,0.0,3.0,86,0.00,,---,0.00,VWS V14.01,2013-09-13 06:16:00,
2013-09-12 23:21:00,59.2,55.0,29.88,East,84,2.0,4.0,86,0.00,,---,0.00,VWS V14.01,2013-09-13 06:21:00,
2013-09-12 23:26:00,59.2,55.0,29.88,East,99,0.0,3.0,86,0.00,,---,0.00,VWS V14.01,2013-09-13 06:26:00,
2013-09-12 23:31:00,59.1,54.9,29.88,ESE,103,0.0,3.0,86,0.00,,---,0.00,VWS V14.01,2013-09-13 06:31:00,
2013-09-12 23:36:00,59.0,54.8,29.89,East,85,0.0,2.0,86,0.00,,---,0.00,VWS V14.01,2013-09-13 06:36:00,
2013-09-12 23:41:00,59.0,54.8,29.88,East,85,0.0,2.0,86,0.00,,---,0.00,VWS V14.01,2013-09-13 06:41:00,
2013-09-12 23:46:00,59.0,54.8,29.88,East,85,0.0,1.0,86,0.00,,---,0.00,VWS V14.01,2013-09-13 06:46:00,
2013-09-12 23:51:00,59.0,54.8,29.88,East,85,0.0,1.0,86,0.00,,---,0.00,VWS V14.01,2013-09-13 06:51:00,
2013-09-12 23:56:00,59.0,54.8,29.88,ESE,108,0.0,1.0,86,0.00,,---,0.00,VWS V14.01,2013-09-13 06:56:00,